Time,TemperatureF,DewpointF,PressureIn,WindDirection,WindDirectionDegrees,WindSpeedMPH,WindSpeedGustMPH,Humidity,HourlyPrecipIn,Conditions,Clouds,dailyrainin,SolarRadiationWatts/m^2,SoftwareType,DateUTC
2013-03-12 00:02:00,38.0,31.0,-100.00,West,260,5.0,9.0,75,0.00,,,1.84,0.000000,,2013-03-12 05:02:00,
2013-03-12 00:12:00,38.0,31.0,-100.00,West,260,5.0,9.0,75,0.00,,,1.84,0.000000,,2013-03-12 05:12:00,
2013-03-12 00:32:00,38.0,31.0,-100.00,West,260,4.0,7.0,76,0.00,,,1.52,0.000000,,2013-03-12 05:32:00,
2013-03-12 00:42:00,38.0,31.0,-100.00,West,260,4.0,7.0,76,0.00,,,1.52,0.000000,,2013-03-12 05:42:00,
2013-03-12 00:52:00,38.0,31.0,-100.00,West,260,4.0,7.0,76,0.00,,,1.52,0.000000,,2013-03-12 05:52:00,
2013-03-12 01:02:00,38.0,31.0,-100.00,West,260,4.0,7.0,76,0.00,,,1.52,0.000000,,2013-03-12 06:02:00,
2013-03-12 01:12:00,38.0,31.0,-100.00,West,260,4.0,7.0,76,0.00,,,1.52,0.000000,,2013-03-12 06:12:00,
2013-03-12 01:42:00,37.0,31.0,-100.00,West,259,4.0,8.0,78,0.00,,,1.33,0.000000,,2013-03-12 06:42:00,
2013-03-12 01:52:00,37.0,31.0,-100.00,West,259,4.0,8.0,78,0.00,,,1.33,0.000000,,2013-03-12 06:52:00,
2013-03-12 02:02:00,37.0,31.0,-100.00,West,259,4.0,8.0,78,0.00,,,1.33,0.000000,,2013-03-12 07:02:00,
2013-03-12 02:12:00,37.0,31.0,-100.00,West,259,4.0,8.0,78,0.00,,,1.33,0.000000,,2013-03-12 07:12:00,
2013-03-12 02:32:00,37.0,29.0,-100.00,West,264,5.0,8.0,74,0.00,,,1.03,0.000000,,2013-03-12 07:32:00,
2013-03-12 02:42:00,37.0,29.0,-100.00,West,264,5.0,8.0,74,0.00,,,1.03,0.000000,,2013-03-12 07:42:00,
2013-03-12 02:52:00,37.0,29.0,-100.00,West,264,5.0,8.0,74,0.00,,,1.03,0.000000,,2013-03-12 07:52:00,
2013-03-12 03:02:00,37.0,29.0,-100.00,West,264,5.0,8.0,74,0.00,,,1.03,0.000000,,2013-03-12 08:02:00,
2013-03-12 03:12:00,37.0,29.0,-100.00,West,264,5.0,8.0,74,0.00,,,1.03,0.000000,,2013-03-12 08:12:00,
2013-03-12 03:42:00,37.0,28.0,-100.00,WNW,288,4.0,9.0,71,0.00,,,0.78,0.000000,,2013-03-12 08:42:00,
2013-03-12 03:52:00,37.0,28.0,-100.00,WNW,288,4.0,9.0,71,0.00,,,0.78,0.000000,,2013-03-12 08:52:00,
2013-03-12 04:03:00,37.0,28.0,-100.00,WNW,288,4.0,9.0,71,0.00,,,0.78,0.000000,,2013-03-12 09:03:00,
2013-03-12 04:12:00,37.0,28.0,-100.00,WNW,288,4.0,9.0,71,0.00,,,0.78,0.000000,,2013-03-12 09:12:00,
2013-03-12 04:43:00,37.0,29.0,-100.00,NW,313,3.0,9.0,73,0.00,,,0.43,0.000000,,2013-03-12 09:43:00,
2013-03-12 04:52:00,37.0,29.0,-100.00,NW,313,3.0,9.0,73,0.00,,,0.43,0.000000,,2013-03-12 09:52:00,
2013-03-12 05:02:00,37.0,29.0,-100.00,NW,313,3.0,9.0,73,0.00,,,0.43,0.000000,,2013-03-12 10:02:00,
2013-03-12 05:12:00,37.0,29.0,-100.00,NW,313,3.0,9.0,73,0.00,,,0.43,0.000000,,2013-03-12 10:12:00,
2013-03-12 05:33:00,33.0,29.0,-100.00,West,264,1.0,5.0,86,0.00,,,0.12,0.000000,,2013-03-12 10:33:00,
2013-03-12 05:42:00,33.0,29.0,-100.00,West,264,1.0,5.0,86,0.00,,,0.12,0.000000,,2013-03-12 10:42:00,
2013-03-12 05:52:00,33.0,29.0,-100.00,West,264,1.0,5.0,86,0.00,,,0.12,0.000000,,2013-03-12 10:52:00,
2013-03-12 06:02:00,33.0,29.0,-100.00,West,264,1.0,5.0,86,0.00,,,0.12,0.000000,,2013-03-12 11:02:00,
2013-03-12 06:12:00,33.0,29.0,-100.00,West,264,1.0,5.0,86,0.00,,,0.12,0.000000,,2013-03-12 11:12:00,
2013-03-12 06:33:00,30.0,28.0,-100.00,WSW,241,3.0,5.0,94,0.00,,,0.00,0.000000,,2013-03-12 11:33:00,
2013-03-12 06:42:00,30.0,28.0,-100.00,WSW,241,3.0,5.0,94,0.00,,,0.00,0.000000,,2013-03-12 11:42:00,
2013-03-12 06:52:00,30.0,28.0,-100.00,WSW,241,3.0,5.0,94,0.00,,,0.00,0.000000,,2013-03-12 11:52:00,
2013-03-12 07:02:00,30.0,28.0,-100.00,WSW,241,3.0,5.0,94,0.00,,,0.00,0.000000,,2013-03-12 12:02:00,
2013-03-12 07:12:00,30.0,28.0,-100.00,WSW,241,3.0,5.0,94,0.00,,,0.00,0.000000,,2013-03-12 12:12:00,
2013-03-12 07:42:00,28.0,28.0,-100.00,NW,312,2.0,4.0,98,0.00,,,0.00,2.000000,,2013-03-12 12:42:00,
2013-03-12 07:52:00,28.0,28.0,-100.00,NW,312,2.0,4.0,98,0.00,,,0.00,2.000000,,2013-03-12 12:52:00,
2013-03-12 08:02:00,28.0,28.0,-100.00,NW,312,2.0,4.0,98,0.00,,,0.00,2.000000,,2013-03-12 13:02:00,
2013-03-12 08:12:00,28.0,28.0,-100.00,NW,312,2.0,4.0,98,0.00,,,0.00,2.000000,,2013-03-12 13:12:00,
2013-03-12 08:43:00,33.0,28.0,-100.00,West,279,4.0,5.0,82,0.00,,,0.00,80.000000,,2013-03-12 13:43:00,
2013-03-12 08:52:00,33.0,28.0,-100.00,West,279,4.0,5.0,82,0.00,,,0.00,80.000000,,2013-03-12 13:52:00,
2013-03-12 09:02:00,33.0,28.0,-100.00,West,279,4.0,5.0,82,0.00,,,0.00,80.000000,,2013-03-12 14:02:00,
2013-03-12 09:12:00,33.0,28.0,-100.00,West,279,4.0,5.0,82,0.00,,,0.00,80.000000,,2013-03-12 14:12:00,
2013-03-12 09:33:00,39.0,27.0,-100.00,NW,312,7.0,12.0,63,0.00,,,0.00,260.000000,,2013-03-12 14:33:00,
2013-03-12 09:43:00,39.0,27.0,-100.00,NW,312,7.0,12.0,63,0.00,,,0.00,260.000000,,2013-03-12 14:43:00,
2013-03-12 09:53:00,39.0,27.0,-100.00,NW,312,7.0,12.0,63,0.00,,,0.00,260.000000,,2013-03-12 14:53:00,
2013-03-12 10:02:00,39.0,27.0,-100.00,NW,312,7.0,12.0,63,0.00,,,0.00,260.000000,,2013-03-12 15:02:00,
2013-03-12 10:12:00,39.0,27.0,-100.00,NW,312,7.0,12.0,63,0.00,,,0.00,260.000000,,2013-03-12 15:12:00,
2013-03-12 10:43:00,41.0,27.0,-100.00,West,279,6.0,12.0,56,0.00,,,0.00,433.000000,,2013-03-12 15:43:00,
2013-03-12 10:53:00,41.0,27.0,-100.00,West,279,6.0,12.0,56,0.00,,,0.00,433.000000,,2013-03-12 15:53:00,
2013-03-12 11:02:00,41.0,27.0,-100.00,West,279,6.0,12.0,56,0.00,,,0.00,433.000000,,2013-03-12 16:02:00,
2013-03-12 11:12:00,41.0,27.0,-100.00,West,279,6.0,12.0,56,0.00,,,0.00,433.000000,,2013-03-12 16:12:00,
2013-03-12 11:43:00,44.0,28.0,-100.00,WNW,291,5.0,14.0,52,0.00,,,0.00,585.000000,,2013-03-12 16:43:00,
2013-03-12 11:53:00,44.0,28.0,-100.00,WNW,291,5.0,14.0,52,0.00,,,0.00,585.000000,,2013-03-12 16:53:00,
2013-03-12 12:03:00,44.0,28.0,-100.00,WNW,291,5.0,14.0,52,0.00,,,0.00,585.000000,,2013-03-12 17:03:00,
2013-03-12 12:13:00,44.0,28.0,-100.00,WNW,291,5.0,14.0,52,0.00,,,0.00,585.000000,,2013-03-12 17:13:00,
2013-03-12 12:44:00,47.0,27.0,-100.00,WSW,245,8.0,17.0,46,0.00,,,0.00,686.000000,,2013-03-12 17:44:00,
2013-03-12 12:53:00,47.0,27.0,-100.00,WSW,245,8.0,17.0,46,0.00,,,0.00,686.000000,,2013-03-12 17:53:00,
2013-03-12 13:03:00,47.0,27.0,-100.00,WSW,245,8.0,17.0,46,0.00,,,0.00,686.000000,,2013-03-12 18:03:00,
2013-03-12 13:13:00,47.0,27.0,-100.00,WSW,245,8.0,17.0,46,0.00,,,0.00,686.000000,,2013-03-12 18:13:00,
2013-03-12 13:43:00,49.0,26.0,-100.00,West,266,8.0,17.0,40,0.00,,,0.00,730.000000,,2013-03-12 18:43:00,
2013-03-12 13:53:00,49.0,26.0,-100.00,West,266,8.0,17.0,40,0.00,,,0.00,730.000000,,2013-03-12 18:53:00,
2013-03-12 14:03:00,49.0,26.0,-100.00,West,266,8.0,17.0,40,0.00,,,0.00,730.000000,,2013-03-12 19:03:00,
2013-03-12 14:13:00,49.0,26.0,-100.00,West,266,8.0,17.0,40,0.00,,,0.00,730.000000,,2013-03-12 19:13:00,
2013-03-12 14:44:00,52.0,27.0,-100.00,WSW,249,9.0,17.0,38,0.00,,,0.00,711.000000,,2013-03-12 19:44:00,
2013-03-12 14:53:00,52.0,27.0,-100.00,WSW,249,9.0,17.0,38,0.00,,,0.00,711.000000,,2013-03-12 19:53:00,
2013-03-12 15:02:00,52.0,27.0,-100.00,WSW,249,9.0,17.0,38,0.00,,,0.00,711.000000,,2013-03-12 20:02:00,
2013-03-12 15:12:00,52.0,27.0,-100.00,WSW,249,9.0,17.0,38,0.00,,,0.00,711.000000,,2013-03-12 20:12:00,
2013-03-12 15:42:00,53.0,25.0,-100.00,WSW,255,8.0,17.0,33,0.00,,,0.00,637.000000,,2013-03-12 20:42:00,
2013-03-12 15:53:00,53.0,25.0,-100.00,WSW,255,8.0,17.0,33,0.00,,,0.00,637.000000,,2013-03-12 20:53:00,
2013-03-12 16:02:00,53.0,25.0,-100.00,WSW,255,8.0,17.0,33,0.00,,,0.00,637.000000,,2013-03-12 21:02:00,
2013-03-12 16:12:00,53.0,25.0,-100.00,WSW,255,8.0,17.0,33,0.00,,,0.00,637.000000,,2013-03-12 21:12:00,
2013-03-12 16:43:00,52.0,25.0,-100.00,West,268,9.0,17.0,34,0.00,,,0.00,515.000000,,2013-03-12 21:43:00,
2013-03-12 16:53:00,52.0,25.0,-100.00,West,268,9.0,17.0,34,0.00,,,0.00,515.000000,,2013-03-12 21:53:00,
2013-03-12 17:02:00,52.0,25.0,-100.00,West,268,9.0,17.0,34,0.00,,,0.00,515.000000,,2013-03-12 22:02:00,
2013-03-12 17:12:00,52.0,25.0,-100.00,West,268,9.0,17.0,34,0.00,,,0.00,515.000000,,2013-03-12 22:12:00,
2013-03-12 17:43:00,53.0,24.0,-100.00,WSW,255,9.0,16.0,32,0.00,,,0.00,360.000000,,2013-03-12 22:43:00,
2013-03-12 17:53:00,53.0,24.0,-100.00,WSW,255,9.0,16.0,32,0.00,,,0.00,360.000000,,2013-03-12 22:53:00,
2013-03-12 18:02:00,53.0,24.0,-100.00,WSW,255,9.0,16.0,32,0.00,,,0.00,360.000000,,2013-03-12 23:02:00,
2013-03-12 18:12:00,53.0,24.0,-100.00,WSW,255,9.0,16.0,32,0.00,,,0.00,360.000000,,2013-03-12 23:12:00,
2013-03-12 18:34:00,51.0,26.0,-100.00,West,271,8.0,15.0,37,0.00,,,0.00,171.000000,,2013-03-12 23:34:00,
2013-03-12 18:43:00,51.0,26.0,-100.00,West,271,8.0,15.0,37,0.00,,,0.00,171.000000,,2013-03-12 23:43:00,
2013-03-12 18:52:00,51.0,26.0,-100.00,West,271,8.0,15.0,37,0.00,,,0.00,171.000000,,2013-03-12 23:52:00,
2013-03-12 19:03:00,51.0,26.0,-100.00,West,271,8.0,15.0,37,0.00,,,0.00,171.000000,,2013-03-13 00:03:00,
2013-03-12 19:12:00,51.0,26.0,-100.00,West,271,8.0,15.0,37,0.00,,,0.00,171.000000,,2013-03-13 00:12:00,
2013-03-12 19:42:00,47.0,29.0,-100.00,WSW,258,6.0,12.0,49,0.00,,,0.00,23.000000,,2013-03-13 00:42:00,
2013-03-12 19:53:00,47.0,29.0,-100.00,WSW,258,6.0,12.0,49,0.00,,,0.00,23.000000,,2013-03-13 00:53:00,
2013-03-12 20:03:00,47.0,29.0,-100.00,WSW,258,6.0,12.0,49,0.00,,,0.00,23.000000,,2013-03-13 01:03:00,
2013-03-12 20:12:00,47.0,29.0,-100.00,WSW,258,6.0,12.0,49,0.00,,,0.00,23.000000,,2013-03-13 01:12:00,
2013-03-12 20:33:00,44.0,28.0,-100.00,WSW,246,4.0,8.0,54,0.00,,,0.00,0.000000,,2013-03-13 01:33:00,
2013-03-12 20:53:00,44.0,28.0,-100.00,WSW,246,4.0,8.0,54,0.00,,,0.00,0.000000,,2013-03-13 01:53:00,
2013-03-12 21:02:00,44.0,28.0,-100.00,WSW,246,4.0,8.0,54,0.00,,,0.00,0.000000,,2013-03-13 02:02:00,
2013-03-12 21:12:00,44.0,28.0,-100.00,WSW,246,4.0,8.0,54,0.00,,,0.00,0.000000,,2013-03-13 02:12:00,
2013-03-12 21:43:00,41.0,30.0,-100.00,SW,235,3.0,5.0,64,0.00,,,0.00,0.000000,,2013-03-13 02:43:00,
2013-03-12 21:53:00,41.0,30.0,-100.00,SW,235,3.0,5.0,64,0.00,,,0.00,0.000000,,2013-03-13 02:53:00,
2013-03-12 22:02:00,41.0,30.0,-100.00,SW,235,3.0,5.0,64,0.00,,,0.00,0.000000,,2013-03-13 03:02:00,
2013-03-12 22:12:00,41.0,30.0,-100.00,SW,235,3.0,5.0,64,0.00,,,0.00,0.000000,,2013-03-13 03:12:00,
2013-03-12 22:33:00,39.0,32.0,-100.00,SW,216,2.0,4.0,75,0.00,,,0.00,0.000000,,2013-03-13 03:33:00,
2013-03-12 22:42:00,39.0,32.0,-100.00,SW,216,2.0,4.0,75,0.00,,,0.00,0.000000,,2013-03-13 03:42:00,
2013-03-12 22:53:00,39.0,32.0,-100.00,SW,216,2.0,4.0,75,0.00,,,0.00,0.000000,,2013-03-13 03:53:00,
2013-03-12 23:03:00,39.0,32.0,-100.00,SW,216,2.0,4.0,75,0.00,,,0.00,0.000000,,2013-03-13 04:03:00,
2013-03-12 23:13:00,39.0,32.0,-100.00,SW,216,2.0,4.0,75,0.00,,,0.00,0.000000,,2013-03-13 04:13:00,
2013-03-12 23:32:00,45.0,29.0,-100.00,West,272,8.0,19.0,53,0.00,,,0.00,0.000000,,2013-03-13 04:32:00,
2013-03-12 23:43:00,45.0,29.0,-100.00,West,272,8.0,19.0,53,0.00,,,0.00,0.000000,,2013-03-13 04:43:00,
2013-03-12 23:53:00,45.0,29.0,-100.00,West,272,8.0,19.0,53,0.00,,,0.00,0.000000,,2013-03-13 04:53:00,